JBU1771 KCLE-CYHZ

Flight info

Callsign JBU1771
Flight time N/A
Altitude 37000
Route PFLYD1 JASEE DCT SYR DCT BGR DCT EBONY FUNDY5
Aircraft A320/M-SDE3FGHIRWY/LB1

Departure

Time 2026-05-05 02:05
Airport Cleveland Hopkins International Airport (KCLE)

Arrival

Time N/A
Airport Halifax / Stanfield International Airport (CYHZ)
Time Latitude Longitude Altitude Speed Heading
2026-05-05 01:38 41.41119 -81.84185 799 ft 0 kts 54°
2026-05-05 01:49 41.41114 -81.84195 798 ft 3 kts 54°
2026-05-05 01:49 41.41103 -81.84214 798 ft 2 kts 54°
2026-05-05 01:49 41.41092 -81.84229 798 ft 2 kts 356°
2026-05-05 01:50 41.41082 -81.84228 798 ft 0 kts 323°
2026-05-05 01:55 41.41083 -81.84228 798 ft 0 kts 320°
2026-05-05 01:56 41.41085 -81.84239 784 ft 3 kts 290°
2026-05-05 01:56 41.41071 -81.84281 798 ft 7 kts 229°
2026-05-05 01:56 41.41055 -81.84343 799 ft 8 kts 266°
2026-05-05 01:56 41.41054 -81.84350 799 ft 0 kts 266°
2026-05-05 01:57 41.41056 -81.84364 799 ft 2 kts 284°
2026-05-05 01:57 41.41061 -81.84397 800 ft 5 kts 273°
2026-05-05 01:57 41.41063 -81.84457 800 ft 8 kts 273°
2026-05-05 01:58 41.41068 -81.84554 799 ft 13 kts 273°
2026-05-05 01:58 41.41073 -81.84659 797 ft 10 kts 281°
2026-05-05 01:58 41.41102 -81.84653 797 ft 5 kts 46°
2026-05-05 01:58 41.41128 -81.84618 798 ft 6 kts 46°
2026-05-05 01:59 41.41161 -81.84571 797 ft 4 kts 49°
2026-05-05 01:59 41.41189 -81.84526 797 ft 8 kts 49°
2026-05-05 01:59 41.41218 -81.84481 796 ft 6 kts 49°
2026-05-05 01:59 41.41248 -81.84431 796 ft 8 kts 53°
2026-05-05 02:00 41.41284 -81.84368 797 ft 9 kts 53°
2026-05-05 02:00 41.41318 -81.84313 797 ft 9 kts 51°
2026-05-05 02:00 41.41359 -81.84248 796 ft 10 kts 49°
2026-05-05 02:00 41.41397 -81.84189 797 ft 8 kts 49°
2026-05-05 02:01 41.41440 -81.84147 798 ft 4 kts 17°
2026-05-05 02:01 41.41455 -81.84147 798 ft 0 kts 350°
2026-05-05 02:03 41.41458 -81.84149 798 ft 2 kts 344°
2026-05-05 02:03 41.41475 -81.84162 798 ft 4 kts 330°
2026-05-05 02:03 41.41497 -81.84197 798 ft 6 kts 298°
2026-05-05 02:04 41.41491 -81.84269 796 ft 10 kts 239°
2026-05-05 02:04 41.41439 -81.84360 796 ft 18 kts 230°
2026-05-05 02:04 41.41225 -81.84693 798 ft 79 kts 230°
2026-05-05 02:04 41.40757 -81.85429 786 ft 127 kts 229°
2026-05-05 02:05 41.40092 -81.86407 1019 ft 148 kts 227°
2026-05-05 02:05 41.39420 -81.87469 1588 ft 149 kts 229°
2026-05-05 02:05 41.38841 -81.88604 2283 ft 150 kts 247°
2026-05-05 02:05 41.38776 -81.90031 2828 ft 169 kts 271°
2026-05-05 02:06 41.38978 -81.91689 3096 ft 194 kts 272°
2026-05-05 02:06 41.39223 -81.93579 3488 ft 219 kts 274°
2026-05-05 02:06 41.39499 -81.95655 4181 ft 231 kts 275°
2026-05-05 02:06 41.39788 -81.97785 5070 ft 235 kts 275°
2026-05-05 02:07 41.40081 -81.99951 5744 ft 240 kts 276°
2026-05-05 02:07 41.40372 -82.02142 5942 ft 240 kts 276°
2026-05-05 02:07 41.40656 -82.04319 6002 ft 238 kts 276°
2026-05-05 02:07 41.40936 -82.06485 6005 ft 237 kts 275°
2026-05-05 02:08 41.41214 -82.08651 6007 ft 237 kts 275°
2026-05-05 02:08 41.41732 -82.10776 6344 ft 254 kts 300°
2026-05-05 02:08 41.43177 -82.12232 7247 ft 276 kts 332°
2026-05-05 02:08 41.45157 -82.12419 8142 ft 301 kts
2026-05-05 02:09 41.47100 -82.11182 8997 ft 321 kts 32°
2026-05-05 02:09 41.48747 -82.09112 9848 ft 328 kts 43°
2026-05-05 02:09 41.50312 -82.06824 10397 ft 343 kts 44°
2026-05-05 02:09 41.51977 -82.04406 10620 ft 365 kts 44°
2026-05-05 02:10 41.53728 -82.01947 11157 ft 372 kts 40°
2026-05-05 02:10 41.55672 -81.99659 11855 ft 374 kts 35°
2026-05-05 02:10 41.57736 -81.97536 12580 ft 376 kts 32°
2026-05-05 02:10 41.59752 -81.95280 13306 ft 383 kts 42°
2026-05-05 02:11 41.61402 -81.92441 13961 ft 391 kts 58°
2026-05-05 02:11 41.62445 -81.89073 14576 ft 396 kts 75°
2026-05-05 02:11 41.62827 -81.85418 15195 ft 399 kts 87°
2026-05-05 02:11 41.62998 -81.81707 15816 ft 402 kts 86°
2026-05-05 02:12 41.63187 -81.77959 16428 ft 405 kts 86°
2026-05-05 02:12 41.63615 -81.70395 17689 ft 411 kts 85°
2026-05-05 02:12 41.63839 -81.66574 18270 ft 414 kts 85°
2026-05-05 02:13 41.64061 -81.62722 18856 ft 417 kts 86°
2026-05-05 02:13 41.64280 -81.58848 19462 ft 419 kts 86°
2026-05-05 02:13 41.64503 -81.54955 20083 ft 422 kts 84°
2026-05-05 02:13 41.65010 -81.51085 20638 ft 424 kts 74°
2026-05-05 02:14 41.65869 -81.47299 21165 ft 427 kts 71°
2026-05-05 02:14 41.66755 -81.43499 21715 ft 430 kts 71°
2026-05-05 02:14 41.67646 -81.39656 22210 ft 435 kts 71°
2026-05-05 02:14 41.68539 -81.35776 22716 ft 438 kts 72°
2026-05-05 02:15 41.69435 -81.31865 23227 ft 442 kts 72°
2026-05-05 02:15 41.70333 -81.27915 23658 ft 445 kts 72°
2026-05-05 02:15 41.71231 -81.23952 24126 ft 446 kts 72°
2026-05-05 02:15 41.72136 -81.19972 24563 ft 448 kts 72°
2026-05-05 02:16 41.73049 -81.15968 24982 ft 451 kts 71°
2026-05-05 02:16 41.73967 -81.11944 25387 ft 453 kts 71°
2026-05-05 02:16 41.74881 -81.07941 25783 ft 456 kts 71°
2026-05-05 02:16 41.75809 -81.03868 26197 ft 458 kts 71°
2026-05-05 02:17 41.76740 -80.99773 26572 ft 461 kts 71°
2026-05-05 02:17 41.77678 -80.95644 26949 ft 464 kts 71°
2026-05-05 02:17 41.78616 -80.91507 27323 ft 466 kts 71°
2026-05-05 02:17 41.79567 -80.87335 27724 ft 468 kts 71°
2026-05-05 02:18 41.80522 -80.83153 28105 ft 471 kts 71°
2026-05-05 02:18 41.81484 -80.78944 28473 ft 473 kts 71°
2026-05-05 02:18 41.82446 -80.74717 28848 ft 476 kts 71°
2026-05-05 02:18 41.83415 -80.70456 29158 ft 480 kts 71°
2026-05-05 02:19 41.84388 -80.66160 29480 ft 483 kts 71°
2026-05-05 02:19 41.85366 -80.61842 29814 ft 485 kts 71°
2026-05-05 02:19 41.86550 -80.57602 30115 ft 486 kts 64°
2026-05-05 02:19 41.87890 -80.53425 30395 ft 488 kts 64°
2026-05-05 02:20 41.89228 -80.49246 30820 ft 486 kts 64°
2026-05-05 02:20 41.90560 -80.45076 31289 ft 484 kts 64°
2026-05-05 02:20 41.91884 -80.40928 31720 ft 483 kts 64°
2026-05-05 02:20 41.93206 -80.36791 32149 ft 482 kts 64°
2026-05-05 02:21 41.94509 -80.32717 32572 ft 481 kts 64°
2026-05-05 02:21 41.95827 -80.28581 32991 ft 480 kts 64°
2026-05-05 02:21 41.97138 -80.24463 33441 ft 479 kts 64°
2026-05-05 02:21 41.98445 -80.20340 33862 ft 479 kts 64°
2026-05-05 02:22 41.99748 -80.16222 34215 ft 479 kts 64°
2026-05-05 02:22 42.01054 -80.12099 34557 ft 479 kts 64°
2026-05-05 02:22 42.02359 -80.07990 34886 ft 478 kts 64°
2026-05-05 02:22 42.03666 -80.03868 35199 ft 478 kts 64°
2026-05-05 02:23 42.04968 -79.99748 35509 ft 478 kts 64°
2026-05-05 02:23 42.06269 -79.95630 35813 ft 479 kts 64°
2026-05-05 02:23 42.07567 -79.91502 36103 ft 479 kts 64°